owner,sensor,date,latitude,longitude,vertical_datum,sea_water_practical_salinity,qcFlag 
SCCF RECON,ioos:station:SCCF:11:1,2019-08-01T04:00:00Z,26.4679,-82.0631,1.73,28.92,11111222 
SCCF RECON,ioos:station:SCCF:11:1,2019-08-01T05:00:00Z,26.4679,-82.0631,1.81,29.43,11111222 
SCCF RECON,ioos:station:SCCF:11:1,2019-08-01T06:00:00Z,26.4679,-82.0631,1.87,29.24,11111222 
SCCF RECON,ioos:station:SCCF:11:1,2019-08-01T07:00:00Z,26.4679,-82.0631,1.93,28.35,11111222 
SCCF RECON,ioos:station:SCCF:11:1,2019-08-01T08:00:00Z,26.4679,-82.0631,1.97,28.06,11111222 
SCCF RECON,ioos:station:SCCF:11:1,2019-08-01T09:00:00Z,26.4679,-82.0631,1.89,28.99,11111222 
SCCF RECON,ioos:station:SCCF:11:1,2019-08-01T10:00:00Z,26.4679,-82.0631,1.78,28.8,11111222 
SCCF RECON,ioos:station:SCCF:11:1,2019-08-01T11:00:00Z,26.4679,-82.0631,1.66,29.01,11111222 
SCCF RECON,ioos:station:SCCF:11:1,2019-08-01T12:00:00Z,26.4679,-82.0631,1.61,28.82,11111222 
SCCF RECON,ioos:station:SCCF:11:1,2019-08-01T13:00:00Z,26.4679,-82.0631,1.712,28.72,11111222 
SCCF RECON,ioos:station:SCCF:11:1,2019-08-01T14:00:00Z,26.4679,-82.0631,1.952,28.51,11111222 
SCCF RECON,ioos:station:SCCF:11:1,2019-08-01T15:00:00Z,26.4679,-82.0631,2.121,28.64,11111222 
SCCF RECON,ioos:station:SCCF:11:1,2019-08-01T16:00:00Z,26.4679,-82.0631,2.25,29.85,11111222 
SCCF RECON,ioos:station:SCCF:11:1,2019-08-01T17:00:00Z,26.4679,-82.0631,2.31,30.33,11111222 
SCCF RECON,ioos:station:SCCF:11:1,2019-08-01T18:00:00Z,26.4679,-82.0631,2.336,32.23,11111222 
SCCF RECON,ioos:station:SCCF:11:1,2019-08-01T19:00:00Z,26.4679,-82.0631,2.27,31.63,11111222 
SCCF RECON,ioos:station:SCCF:11:1,2019-08-01T20:00:00Z,26.4679,-82.0631,2.204,31.19,11111222 
SCCF RECON,ioos:station:SCCF:11:1,2019-08-01T21:00:00Z,26.4679,-82.0631,1.914,29.01,11111222 
SCCF RECON,ioos:station:SCCF:11:1,2019-08-01T22:00:00Z,26.4679,-82.0631,1.709,28.95,11111222 
SCCF RECON,ioos:station:SCCF:11:1,2019-08-01T23:00:00Z,26.4679,-82.0631,1.54,29.02,11111222 
SCCF RECON,ioos:station:SCCF:11:1,2019-08-02T04:00:00Z,26.4679,-82.0631,1.64,28.85,11111222 
SCCF RECON,ioos:station:SCCF:11:1,2019-08-02T05:00:00Z,26.4679,-82.0631,1.806,28.72,11111222 
SCCF RECON,ioos:station:SCCF:11:1,2019-08-02T06:00:00Z,26.4679,-82.0631,1.93,28.69,11111222 
SCCF RECON,ioos:station:SCCF:11:1,2019-08-02T07:00:00Z,26.4679,-82.0631,2.03,28.79,11111222 
SCCF RECON,ioos:station:SCCF:11:1,2019-08-02T08:00:00Z,26.4679,-82.0631,2.06,29.97,11111222 
SCCF RECON,ioos:station:SCCF:11:1,2019-08-02T09:00:00Z,26.4679,-82.0631,1.97,30.69,11111222 
SCCF RECON,ioos:station:SCCF:11:1,2019-08-02T10:00:00Z,26.4679,-82.0631,1.85,28.76,11111222 
SCCF RECON,ioos:station:SCCF:11:1,2019-08-02T11:00:00Z,26.4679,-82.0631,1.79,28.82,11111222 
SCCF RECON,ioos:station:SCCF:11:1,2019-08-02T12:00:00Z,26.4679,-82.0631,1.76,28.75,11111222 
SCCF RECON,ioos:station:SCCF:11:1,2019-08-02T13:00:00Z,26.4679,-82.0631,1.8,28.87,11111222 
SCCF RECON,ioos:station:SCCF:11:1,2019-08-02T14:00:00Z,26.4679,-82.0631,1.933,30.07,11111222 
SCCF RECON,ioos:station:SCCF:11:1,2019-08-02T15:00:00Z,26.4679,-82.0631,2.13,29.49,11111222 
SCCF RECON,ioos:station:SCCF:11:1,2019-08-02T16:00:00Z,26.4679,-82.0631,2.28,31.2,11111222 
SCCF RECON,ioos:station:SCCF:11:1,2019-08-02T17:00:00Z,26.4679,-82.0631,2.34,31.92,11111222 
SCCF RECON,ioos:station:SCCF:11:1,2019-08-02T18:00:00Z,26.4679,-82.0631,2.4,32.81,11111222 
SCCF RECON,ioos:station:SCCF:11:1,2019-08-02T19:00:00Z,26.4679,-82.0631,2.393,32.87,11111222 
SCCF RECON,ioos:station:SCCF:11:1,2019-08-02T20:00:00Z,26.4679,-82.0631,2.34,34.86,11111222 
SCCF RECON,ioos:station:SCCF:11:1,2019-08-02T21:00:00Z,26.4679,-82.0631,2.13,31.22,11111222 
SCCF RECON,ioos:station:SCCF:11:1,2019-08-02T22:00:00Z,26.4679,-82.0631,1.964,30.17,11111222 
SCCF RECON,ioos:station:SCCF:11:1,2019-08-02T23:00:00Z,26.4679,-82.0631,1.791,29.7,11111222 
SCCF RECON,ioos:station:SCCF:11:1,2019-08-03T04:00:00Z,26.4679,-82.0631,1.71,31.25,11111222 
SCCF RECON,ioos:station:SCCF:11:1,2019-08-03T05:00:00Z,26.4679,-82.0631,1.869,30.29,11111222 
SCCF RECON,ioos:station:SCCF:11:1,2019-08-03T06:00:00Z,26.4679,-82.0631,1.989,30.63,11111222 
SCCF RECON,ioos:station:SCCF:11:1,2019-08-03T07:00:00Z,26.4679,-82.0631,2.1,31.07,11111222 
SCCF RECON,ioos:station:SCCF:11:1,2019-08-03T08:00:00Z,26.4679,-82.0631,2.15,31.45,11111222 
SCCF RECON,ioos:station:SCCF:11:1,2019-08-03T09:00:00Z,26.4679,-82.0631,2.13,33.39,11111222 
SCCF RECON,ioos:station:SCCF:11:1,2019-08-03T10:00:00Z,26.4679,-82.0631,2.03,32.28,11111222 
SCCF RECON,ioos:station:SCCF:11:1,2019-08-03T11:00:00Z,26.4679,-82.0631,1.92,30.39,11111222 
SCCF RECON,ioos:station:SCCF:11:1,2019-08-03T12:00:00Z,26.4679,-82.0631,1.88,30.57,11111222 
SCCF RECON,ioos:station:SCCF:11:1,2019-08-03T13:00:00Z,26.4679,-82.0631,1.81,29.86,11111222 
SCCF RECON,ioos:station:SCCF:11:1,2019-08-03T14:00:00Z,26.4679,-82.0631,1.83,29.73,11111222 
SCCF RECON,ioos:station:SCCF:11:1,2019-08-03T15:00:00Z,26.4679,-82.0631,1.949,31.13,11111222 
SCCF RECON,ioos:station:SCCF:11:1,2019-08-03T16:00:00Z,26.4679,-82.0631,2.123,31.93,11111222 
SCCF RECON,ioos:station:SCCF:11:1,2019-08-03T17:00:00Z,26.4679,-82.0631,2.254,32.52,11111222 
SCCF RECON,ioos:station:SCCF:11:1,2019-08-03T18:00:00Z,26.4679,-82.0631,2.337,32.99,11111222 
SCCF RECON,ioos:station:SCCF:11:1,2019-08-03T19:00:00Z,26.4679,-82.0631,2.368,33.1,11111222 
SCCF RECON,ioos:station:SCCF:11:1,2019-08-03T20:00:00Z,26.4679,-82.0631,2.342,33.53,11111222 
SCCF RECON,ioos:station:SCCF:11:1,2019-08-03T21:00:00Z,26.4679,-82.0631,2.242,33.68,11111222 
SCCF RECON,ioos:station:SCCF:11:1,2019-08-03T22:00:00Z,26.4679,-82.0631,2.073,31.28,11111222 
SCCF RECON,ioos:station:SCCF:11:1,2019-08-03T23:00:00Z,26.4679,-82.0631,1.91,30.59,11111222 
SCCF RECON,ioos:station:SCCF:11:1,2019-08-04T04:00:00Z,26.4679,-82.0631,1.62,30.6,11111222 
SCCF RECON,ioos:station:SCCF:11:1,2019-08-04T05:00:00Z,26.4679,-82.0631,1.82,30.98,11111222 
SCCF RECON,ioos:station:SCCF:11:1,2019-08-04T06:00:00Z,26.4679,-82.0631,1.97,30.49,11111222 
SCCF RECON,ioos:station:SCCF:11:1,2019-08-04T07:00:00Z,26.4679,-82.0631,2.08,30.74,11111222 
SCCF RECON,ioos:station:SCCF:11:1,2019-08-04T08:00:00Z,26.4679,-82.0631,2.18,30.67,11111222 
SCCF RECON,ioos:station:SCCF:11:1,2019-08-04T09:00:00Z,26.4679,-82.0631,2.18,32.18,11111222 
SCCF RECON,ioos:station:SCCF:11:1,2019-08-04T10:00:00Z,26.4679,-82.0631,2.12,31.71,11111222 
SCCF RECON,ioos:station:SCCF:11:1,2019-08-04T11:00:00Z,26.4679,-82.0631,2.01,30.84,11111222 
SCCF RECON,ioos:station:SCCF:11:1,2019-08-04T12:00:00Z,26.4679,-82.0631,1.91,30.42,11111222 
SCCF RECON,ioos:station:SCCF:11:1,2019-08-04T13:00:00Z,26.4679,-82.0631,1.82,30.19,11111222 
SCCF RECON,ioos:station:SCCF:11:1,2019-08-04T14:00:00Z,26.4679,-82.0631,1.75,30.18,11111222 
SCCF RECON,ioos:station:SCCF:11:1,2019-08-04T15:00:00Z,26.4679,-82.0631,1.746,30.95,11111222 
SCCF RECON,ioos:station:SCCF:11:1,2019-08-04T16:00:00Z,26.4679,-82.0631,1.87,30.66,11111222 
SCCF RECON,ioos:station:SCCF:11:1,2019-08-04T17:00:00Z,26.4679,-82.0631,2.046,30.68,11111222 
SCCF RECON,ioos:station:SCCF:11:1,2019-08-04T18:00:00Z,26.4679,-82.0631,2.14,30.53,11111222 
SCCF RECON,ioos:station:SCCF:11:1,2019-08-04T19:00:00Z,26.4679,-82.0631,2.2,30.56,11111222 
SCCF RECON,ioos:station:SCCF:11:1,2019-08-04T20:00:00Z,26.4679,-82.0631,2.24,30.87,11111222 
SCCF RECON,ioos:station:SCCF:11:1,2019-08-04T21:00:00Z,26.4679,-82.0631,2.22,30.91,11111222 
SCCF RECON,ioos:station:SCCF:11:1,2019-08-04T22:00:00Z,26.4679,-82.0631,2.13,30.94,11111222 
SCCF RECON,ioos:station:SCCF:11:1,2019-08-04T23:00:00Z,26.4679,-82.0631,1.98,30.31,11111222 
SCCF RECON,ioos:station:SCCF:11:1,2019-08-05T04:00:00Z,26.4679,-82.0631,1.54,29.61,11111222 
SCCF RECON,ioos:station:SCCF:11:1,2019-08-05T05:00:00Z,26.4679,-82.0631,1.712,30.03,11111222 
SCCF RECON,ioos:station:SCCF:11:1,2019-08-05T06:00:00Z,26.4679,-82.0631,1.912,29.84,11111222 
SCCF RECON,ioos:station:SCCF:11:1,2019-08-05T07:00:00Z,26.4679,-82.0631,2.04,29.87,11111222 
SCCF RECON,ioos:station:SCCF:11:1,2019-08-05T08:00:00Z,26.4679,-82.0631,2.142,29.91,11111222 
SCCF RECON,ioos:station:SCCF:11:1,2019-08-05T09:00:00Z,26.4679,-82.0631,2.21,30.44,11111222 
SCCF RECON,ioos:station:SCCF:11:1,2019-08-05T10:00:00Z,26.4679,-82.0631,2.21,32.17,11111222 
SCCF RECON,ioos:station:SCCF:11:1,2019-08-05T11:00:00Z,26.4679,-82.0631,2.08,30.23,11111222 
SCCF RECON,ioos:station:SCCF:11:1,2019-08-05T12:00:00Z,26.4679,-82.0631,1.96,29.39,11111222 
SCCF RECON,ioos:station:SCCF:11:1,2019-08-05T13:00:00Z,26.4679,-82.0631,1.86,29.33,11111222 
SCCF RECON,ioos:station:SCCF:11:1,2019-08-05T14:00:00Z,26.4679,-82.0631,1.78,29.31,11111222 
SCCF RECON,ioos:station:SCCF:11:1,2019-08-05T15:00:00Z,26.4679,-82.0631,1.712,29.37,11111222 
SCCF RECON,ioos:station:SCCF:11:1,2019-08-05T16:00:00Z,26.4679,-82.0631,1.71,29.65,11111222 
SCCF RECON,ioos:station:SCCF:11:1,2019-08-05T17:00:00Z,26.4679,-82.0631,1.81,29.42,11111222 
SCCF RECON,ioos:station:SCCF:11:1,2019-08-05T18:00:00Z,26.4679,-82.0631,1.94,29.51,11111222 
SCCF RECON,ioos:station:SCCF:11:1,2019-08-05T19:00:00Z,26.4679,-82.0631,2.059,29.33,11111222 
SCCF RECON,ioos:station:SCCF:11:1,2019-08-05T20:00:00Z,26.4679,-82.0631,2.11,29.33,11111222 
SCCF RECON,ioos:station:SCCF:11:1,2019-08-05T21:00:00Z,26.4679,-82.0631,2.11,29.42,11111222 
SCCF RECON,ioos:station:SCCF:11:1,2019-08-05T22:00:00Z,26.4679,-82.0631,2.09,29.34,11111222 
SCCF RECON,ioos:station:SCCF:11:1,2019-08-05T23:00:00Z,26.4679,-82.0631,2.04,29.27,11111222 
SCCF RECON,ioos:station:SCCF:11:1,2019-08-06T04:00:00Z,26.4679,-82.0631,1.584,29.36,11111222 
SCCF RECON,ioos:station:SCCF:11:1,2019-08-06T05:00:00Z,26.4679,-82.0631,1.65,29.46,11111222 
SCCF RECON,ioos:station:SCCF:11:1,2019-08-06T06:00:00Z,26.4679,-82.0631,1.839,29.68,11111222 
SCCF RECON,ioos:station:SCCF:11:1,2019-08-06T07:00:00Z,26.4679,-82.0631,1.99,28.62,11111222 
SCCF RECON,ioos:station:SCCF:11:1,2019-08-06T08:00:00Z,26.4679,-82.0631,2.1,28.31,11111222 
SCCF RECON,ioos:station:SCCF:11:1,2019-08-06T09:00:00Z,26.4679,-82.0631,2.16,28.57,11111222 
SCCF RECON,ioos:station:SCCF:11:1,2019-08-06T10:00:00Z,26.4679,-82.0631,2.185,28.95,11111222 
SCCF RECON,ioos:station:SCCF:11:1,2019-08-06T11:00:00Z,26.4679,-82.0631,2.15,29.66,11111222 
SCCF RECON,ioos:station:SCCF:11:1,2019-08-06T12:00:00Z,26.4679,-82.0631,2.05,29.09,11111222 
SCCF RECON,ioos:station:SCCF:11:1,2019-08-06T13:00:00Z,26.4679,-82.0631,1.94,28.67,11111222 
SCCF RECON,ioos:station:SCCF:11:1,2019-08-06T14:00:00Z,26.4679,-82.0631,1.821,28.99,11111222 
SCCF RECON,ioos:station:SCCF:11:1,2019-08-06T15:00:00Z,26.4679,-82.0631,1.72,29.04,11111222 
SCCF RECON,ioos:station:SCCF:11:1,2019-08-06T16:00:00Z,26.4679,-82.0631,1.64,28.93,11111222 
SCCF RECON,ioos:station:SCCF:11:1,2019-08-06T17:00:00Z,26.4679,-82.0631,1.62,29.24,11111222 
SCCF RECON,ioos:station:SCCF:11:1,2019-08-06T18:00:00Z,26.4679,-82.0631,1.7,29.37,11111222 
SCCF RECON,ioos:station:SCCF:11:1,2019-08-06T19:00:00Z,26.4679,-82.0631,1.83,29.26,11111222 
SCCF RECON,ioos:station:SCCF:11:1,2019-08-06T20:00:00Z,26.4679,-82.0631,1.949,29.3,11111222 
SCCF RECON,ioos:station:SCCF:11:1,2019-08-06T21:00:00Z,26.4679,-82.0631,2.003,29.12,11111222 
SCCF RECON,ioos:station:SCCF:11:1,2019-08-06T22:00:00Z,26.4679,-82.0631,2.03,29.31,11111222 
SCCF RECON,ioos:station:SCCF:11:1,2019-08-06T23:00:00Z,26.4679,-82.0631,2.03,29.1,11111222 
SCCF RECON,ioos:station:SCCF:11:1,2019-08-07T04:00:00Z,26.4679,-82.0631,1.633,29.09,11111222 
SCCF RECON,ioos:station:SCCF:11:1,2019-08-07T05:00:00Z,26.4679,-82.0631,1.64,29.17,11111222 
SCCF RECON,ioos:station:SCCF:11:1,2019-08-07T06:00:00Z,26.4679,-82.0631,1.75,29.15,11111222 
SCCF RECON,ioos:station:SCCF:11:1,2019-08-07T07:00:00Z,26.4679,-82.0631,1.91,29.16,11111222 
SCCF RECON,ioos:station:SCCF:11:1,2019-08-07T08:00:00Z,26.4679,-82.0631,2.02,28.54,11111222 
SCCF RECON,ioos:station:SCCF:11:1,2019-08-07T09:00:00Z,26.4679,-82.0631,2.1,27.81,11111222 
SCCF RECON,ioos:station:SCCF:11:1,2019-08-07T10:00:00Z,26.4679,-82.0631,2.15,28.54,11111222 
SCCF RECON,ioos:station:SCCF:11:1,2019-08-07T11:00:00Z,26.4679,-82.0631,2.16,28.89,11111222 
SCCF RECON,ioos:station:SCCF:11:1,2019-08-07T12:00:00Z,26.4679,-82.0631,2.12,28.77,11111222 
SCCF RECON,ioos:station:SCCF:11:1,2019-08-07T13:00:00Z,26.4679,-82.0631,2.032,28.64,11111222 
SCCF RECON,ioos:station:SCCF:11:1,2019-08-07T14:00:00Z,26.4679,-82.0631,1.916,28.78,11111222 
SCCF RECON,ioos:station:SCCF:11:1,2019-08-07T15:00:00Z,26.4679,-82.0631,1.796,28.96,11111222 
SCCF RECON,ioos:station:SCCF:11:1,2019-08-07T16:00:00Z,26.4679,-82.0631,1.682,29.06,11111222 
SCCF RECON,ioos:station:SCCF:11:1,2019-08-07T17:00:00Z,26.4679,-82.0631,1.58,29.03,11111222 
SCCF RECON,ioos:station:SCCF:11:1,2019-08-07T18:00:00Z,26.4679,-82.0631,1.54,28.52,11111222 
SCCF RECON,ioos:station:SCCF:11:1,2019-08-07T19:00:00Z,26.4679,-82.0631,1.589,28.59,11111222 
SCCF RECON,ioos:station:SCCF:11:1,2019-08-07T20:00:00Z,26.4679,-82.0631,1.701,28.56,11111222 
SCCF RECON,ioos:station:SCCF:11:1,2019-08-07T21:00:00Z,26.4679,-82.0631,1.821,28.64,11111222 
SCCF RECON,ioos:station:SCCF:11:1,2019-08-07T22:00:00Z,26.4679,-82.0631,1.881,28.5,11111222 
SCCF RECON,ioos:station:SCCF:11:1,2019-08-07T23:00:00Z,26.4679,-82.0631,1.92,28.67,11111222 
SCCF RECON,ioos:station:SCCF:11:1,2019-08-08T04:00:00Z,26.4679,-82.0631,1.75,28.83,11111222 
SCCF RECON,ioos:station:SCCF:11:1,2019-08-08T05:00:00Z,26.4679,-82.0631,1.74,28.79,11111222 
SCCF RECON,ioos:station:SCCF:11:1,2019-08-08T06:00:00Z,26.4679,-82.0631,1.779,28.71,11111222 
SCCF RECON,ioos:station:SCCF:11:1,2019-08-08T07:00:00Z,26.4679,-82.0631,1.84,28.74,11111222 
SCCF RECON,ioos:station:SCCF:11:1,2019-08-08T08:00:00Z,26.4679,-82.0631,1.92,28.25,11111222 
SCCF RECON,ioos:station:SCCF:11:1,2019-08-08T09:00:00Z,26.4679,-82.0631,2.0,28.62,11111222 
SCCF RECON,ioos:station:SCCF:11:1,2019-08-08T10:00:00Z,26.4679,-82.0631,2.07,28.63,11111222 
SCCF RECON,ioos:station:SCCF:11:1,2019-08-08T11:00:00Z,26.4679,-82.0631,2.12,28.66,11111222 
SCCF RECON,ioos:station:SCCF:11:1,2019-08-08T12:00:00Z,26.4679,-82.0631,2.11,28.95,11111222 
SCCF RECON,ioos:station:SCCF:11:1,2019-08-08T13:00:00Z,26.4679,-82.0631,2.09,29.21,11111222 
SCCF RECON,ioos:station:SCCF:11:1,2019-08-08T14:00:00Z,26.4679,-82.0631,2.0,28.85,11111222 
SCCF RECON,ioos:station:SCCF:11:1,2019-08-08T15:00:00Z,26.4679,-82.0631,1.87,28.48,11111222 
SCCF RECON,ioos:station:SCCF:11:1,2019-08-08T16:00:00Z,26.4679,-82.0631,1.75,28.53,11111222 
SCCF RECON,ioos:station:SCCF:11:1,2019-08-08T17:00:00Z,26.4679,-82.0631,1.63,28.7,11111222 
SCCF RECON,ioos:station:SCCF:11:1,2019-08-08T18:00:00Z,26.4679,-82.0631,1.53,28.53,11111222 
SCCF RECON,ioos:station:SCCF:11:1,2019-08-08T19:00:00Z,26.4679,-82.0631,1.48,27.39,11111222 
SCCF RECON,ioos:station:SCCF:11:1,2019-08-08T20:00:00Z,26.4679,-82.0631,1.5,27.57,11111222 
SCCF RECON,ioos:station:SCCF:11:1,2019-08-08T21:00:00Z,26.4679,-82.0631,1.6,27.3,11111222 
SCCF RECON,ioos:station:SCCF:11:1,2019-08-08T22:00:00Z,26.4679,-82.0631,1.711,28.04,11111222 
SCCF RECON,ioos:station:SCCF:11:1,2019-08-08T23:00:00Z,26.4679,-82.0631,1.783,28.47,11111222 
SCCF RECON,ioos:station:SCCF:11:1,2019-08-09T04:00:00Z,26.4679,-82.0631,1.82,27.44,11111222 
SCCF RECON,ioos:station:SCCF:11:1,2019-08-09T05:00:00Z,26.4679,-82.0631,1.8,27.44,11111222 
SCCF RECON,ioos:station:SCCF:11:1,2019-08-09T06:00:00Z,26.4679,-82.0631,1.79,26.87,11111222 
SCCF RECON,ioos:station:SCCF:11:1,2019-08-09T07:00:00Z,26.4679,-82.0631,1.795,26.58,11111222 
SCCF RECON,ioos:station:SCCF:11:1,2019-08-09T08:00:00Z,26.4679,-82.0631,1.84,26.79,11111222 
SCCF RECON,ioos:station:SCCF:11:1,2019-08-09T09:00:00Z,26.4679,-82.0631,1.92,26.82,11111222 
SCCF RECON,ioos:station:SCCF:11:1,2019-08-09T10:00:00Z,26.4679,-82.0631,1.98,26.82,11111222 
SCCF RECON,ioos:station:SCCF:11:1,2019-08-09T11:00:00Z,26.4679,-82.0631,2.04,26.73,11111222 
SCCF RECON,ioos:station:SCCF:11:1,2019-08-09T12:00:00Z,26.4679,-82.0631,2.05,26.84,11111222 
SCCF RECON,ioos:station:SCCF:11:1,2019-08-09T13:00:00Z,26.4679,-82.0631,2.09,27.1,11111222 
SCCF RECON,ioos:station:SCCF:11:1,2019-08-09T14:00:00Z,26.4679,-82.0631,2.088,27.21,11111222 
SCCF RECON,ioos:station:SCCF:11:1,2019-08-09T15:00:00Z,26.4679,-82.0631,2.032,27.17,11111222 
SCCF RECON,ioos:station:SCCF:11:1,2019-08-09T16:00:00Z,26.4679,-82.0631,1.91,27.41,11111222 
SCCF RECON,ioos:station:SCCF:11:1,2019-08-09T17:00:00Z,26.4679,-82.0631,1.758,27.82,11111222 
SCCF RECON,ioos:station:SCCF:11:1,2019-08-09T18:00:00Z,26.4679,-82.0631,1.623,27.97,11111222 
SCCF RECON,ioos:station:SCCF:11:1,2019-08-09T19:00:00Z,26.4679,-82.0631,1.517,28.04,11111222 
SCCF RECON,ioos:station:SCCF:11:1,2019-08-09T20:00:00Z,26.4679,-82.0631,1.43,27.73,11111222 
SCCF RECON,ioos:station:SCCF:11:1,2019-08-09T21:00:00Z,26.4679,-82.0631,1.41,27.08,11111222 
SCCF RECON,ioos:station:SCCF:11:1,2019-08-09T22:00:00Z,26.4679,-82.0631,1.51,27.23,11111222 
SCCF RECON,ioos:station:SCCF:11:1,2019-08-09T23:00:00Z,26.4679,-82.0631,1.636,27.38,11111222 
SCCF RECON,ioos:station:SCCF:11:1,2019-08-10T04:00:00Z,26.4679,-82.0631,1.9,27.22,11111222 
SCCF RECON,ioos:station:SCCF:11:1,2019-08-10T05:00:00Z,26.4679,-82.0631,1.85,27.51,11111222 
SCCF RECON,ioos:station:SCCF:11:1,2019-08-10T06:00:00Z,26.4679,-82.0631,1.82,27.46,11111222 
SCCF RECON,ioos:station:SCCF:11:1,2019-08-10T07:00:00Z,26.4679,-82.0631,1.783,27.35,11111222 
SCCF RECON,ioos:station:SCCF:11:1,2019-08-10T08:00:00Z,26.4679,-82.0631,1.776,25.84,11111222 
SCCF RECON,ioos:station:SCCF:11:1,2019-08-10T09:00:00Z,26.4679,-82.0631,1.81,26.96,11111222 
SCCF RECON,ioos:station:SCCF:11:1,2019-08-10T10:00:00Z,26.4679,-82.0631,1.88,27.33,11111222 
SCCF RECON,ioos:station:SCCF:11:1,2019-08-10T11:00:00Z,26.4679,-82.0631,1.97,27.33,11111222 
SCCF RECON,ioos:station:SCCF:11:1,2019-08-10T12:00:00Z,26.4679,-82.0631,2.04,27.22,11111222 
SCCF RECON,ioos:station:SCCF:11:1,2019-08-10T13:00:00Z,26.4679,-82.0631,2.098,27.43,11111222 
SCCF RECON,ioos:station:SCCF:11:1,2019-08-10T14:00:00Z,26.4679,-82.0631,2.12,27.53,11111222 
SCCF RECON,ioos:station:SCCF:11:1,2019-08-10T15:00:00Z,26.4679,-82.0631,2.1,27.64,11111222 
SCCF RECON,ioos:station:SCCF:11:1,2019-08-10T16:00:00Z,26.4679,-82.0631,1.98,26.91,11111222 
SCCF RECON,ioos:station:SCCF:11:1,2019-08-10T17:00:00Z,26.4679,-82.0631,1.87,27.42,11111222 
SCCF RECON,ioos:station:SCCF:11:1,2019-08-10T18:00:00Z,26.4679,-82.0631,1.72,27.64,11111222 
SCCF RECON,ioos:station:SCCF:11:1,2019-08-10T19:00:00Z,26.4679,-82.0631,1.59,27.72,11111222 
SCCF RECON,ioos:station:SCCF:11:1,2019-08-10T20:00:00Z,26.4679,-82.0631,1.47,27.81,11111222 
SCCF RECON,ioos:station:SCCF:11:1,2019-08-10T21:00:00Z,26.4679,-82.0631,1.4,27.99,11111222 
SCCF RECON,ioos:station:SCCF:11:1,2019-08-10T22:00:00Z,26.4679,-82.0631,1.375,28.02,11111222 
SCCF RECON,ioos:station:SCCF:11:1,2019-08-10T23:00:00Z,26.4679,-82.0631,1.46,28.08,11111222 
SCCF RECON,ioos:station:SCCF:11:1,2019-08-11T04:00:00Z,26.4679,-82.0631,1.91,26.95,11111222 
SCCF RECON,ioos:station:SCCF:11:1,2019-08-11T05:00:00Z,26.4679,-82.0631,1.9,27.83,11111222 
SCCF RECON,ioos:station:SCCF:11:1,2019-08-11T06:00:00Z,26.4679,-82.0631,1.87,27.56,11111222 
SCCF RECON,ioos:station:SCCF:11:1,2019-08-11T07:00:00Z,26.4679,-82.0631,1.829,27.74,11111222 
SCCF RECON,ioos:station:SCCF:11:1,2019-08-11T08:00:00Z,26.4679,-82.0631,1.78,27.76,11111222 
SCCF RECON,ioos:station:SCCF:11:1,2019-08-11T09:00:00Z,26.4679,-82.0631,1.77,27.23,11111222 
SCCF RECON,ioos:station:SCCF:11:1,2019-08-11T10:00:00Z,26.4679,-82.0631,1.818,27.48,11111222 
SCCF RECON,ioos:station:SCCF:11:1,2019-08-11T11:00:00Z,26.4679,-82.0631,1.905,26.72,11111222 
SCCF RECON,ioos:station:SCCF:11:1,2019-08-11T12:00:00Z,26.4679,-82.0631,2.011,27.24,11111222 
SCCF RECON,ioos:station:SCCF:11:1,2019-08-11T13:00:00Z,26.4679,-82.0631,2.1,27.39,11111222 
SCCF RECON,ioos:station:SCCF:11:1,2019-08-11T14:00:00Z,26.4679,-82.0631,2.167,27.27,11111222 
SCCF RECON,ioos:station:SCCF:11:1,2019-08-11T15:00:00Z,26.4679,-82.0631,2.163,27.39,11111222 
SCCF RECON,ioos:station:SCCF:11:1,2019-08-11T16:00:00Z,26.4679,-82.0631,2.119,27.7,11111222 
SCCF RECON,ioos:station:SCCF:11:1,2019-08-11T17:00:00Z,26.4679,-82.0631,2.014,27.36,11111222 
SCCF RECON,ioos:station:SCCF:11:1,2019-08-11T18:00:00Z,26.4679,-82.0631,1.85,26.77,11111222 
SCCF RECON,ioos:station:SCCF:11:1,2019-08-11T19:00:00Z,26.4679,-82.0631,1.71,27.15,11111222 
SCCF RECON,ioos:station:SCCF:11:1,2019-08-11T20:00:00Z,26.4679,-82.0631,1.58,27.29,11111222 
SCCF RECON,ioos:station:SCCF:11:1,2019-08-11T21:00:00Z,26.4679,-82.0631,1.448,27.28,11111222 
SCCF RECON,ioos:station:SCCF:11:1,2019-08-11T22:00:00Z,26.4679,-82.0631,1.36,26.96,11111222 
SCCF RECON,ioos:station:SCCF:11:1,2019-08-11T23:00:00Z,26.4679,-82.0631,1.36,27.03,11111222 
SCCF RECON,ioos:station:SCCF:11:1,2019-08-12T04:00:00Z,26.4679,-82.0631,1.871,25.87,11111222 
SCCF RECON,ioos:station:SCCF:11:1,2019-08-12T05:00:00Z,26.4679,-82.0631,1.91,27.19,11111222 
SCCF RECON,ioos:station:SCCF:11:1,2019-08-12T06:00:00Z,26.4679,-82.0631,1.901,27.71,11111222 
SCCF RECON,ioos:station:SCCF:11:1,2019-08-12T07:00:00Z,26.4679,-82.0631,1.85,27.37,11111222 
SCCF RECON,ioos:station:SCCF:11:1,2019-08-12T08:00:00Z,26.4679,-82.0631,1.78,26.96,11111222 
SCCF RECON,ioos:station:SCCF:11:1,2019-08-12T10:00:00Z,26.4679,-82.0631,1.76,25.25,11111222 
SCCF RECON,ioos:station:SCCF:11:1,2019-08-12T11:00:00Z,26.4679,-82.0631,1.82,26.69,11111222 
SCCF RECON,ioos:station:SCCF:11:1,2019-08-12T12:00:00Z,26.4679,-82.0631,1.9,24.52,11111222 
SCCF RECON,ioos:station:SCCF:11:1,2019-08-12T13:00:00Z,26.4679,-82.0631,2.037,25.95,11111222 
SCCF RECON,ioos:station:SCCF:11:1,2019-08-12T14:00:00Z,26.4679,-82.0631,2.12,23.73,11111222 
SCCF RECON,ioos:station:SCCF:11:1,2019-08-12T15:00:00Z,26.4679,-82.0631,2.15,24.62,11111222 
SCCF RECON,ioos:station:SCCF:11:1,2019-08-12T16:00:00Z,26.4679,-82.0631,2.12,26.49,11111222 
SCCF RECON,ioos:station:SCCF:11:1,2019-08-12T17:00:00Z,26.4679,-82.0631,2.05,26.53,11111222 
SCCF RECON,ioos:station:SCCF:11:1,2019-08-12T18:00:00Z,26.4679,-82.0631,1.94,26.01,11111222 
SCCF RECON,ioos:station:SCCF:11:1,2019-08-12T19:00:00Z,26.4679,-82.0631,1.799,26.12,11111222 
SCCF RECON,ioos:station:SCCF:11:1,2019-08-12T20:00:00Z,26.4679,-82.0631,1.656,26.48,11111222 
SCCF RECON,ioos:station:SCCF:11:1,2019-08-12T21:00:00Z,26.4679,-82.0631,1.52,26.7,11111222 
SCCF RECON,ioos:station:SCCF:11:1,2019-08-12T22:00:00Z,26.4679,-82.0631,1.4,26.87,11111222 
SCCF RECON,ioos:station:SCCF:11:1,2019-08-12T23:00:00Z,26.4679,-82.0631,1.32,26.03,11111222 
SCCF RECON,ioos:station:SCCF:11:1,2019-08-13T04:00:00Z,26.4679,-82.0631,1.86,25.05,11111222 
SCCF RECON,ioos:station:SCCF:11:1,2019-08-13T05:00:00Z,26.4679,-82.0631,1.947,25.77,11111222 
SCCF RECON,ioos:station:SCCF:11:1,2019-08-13T06:00:00Z,26.4679,-82.0631,1.96,26.16,11111222 
SCCF RECON,ioos:station:SCCF:11:1,2019-08-13T07:00:00Z,26.4679,-82.0631,1.91,26.21,11111222 
SCCF RECON,ioos:station:SCCF:11:1,2019-08-13T08:00:00Z,26.4679,-82.0631,1.85,25.92,11111222 
SCCF RECON,ioos:station:SCCF:11:1,2019-08-13T09:00:00Z,26.4679,-82.0631,1.81,26.17,11111222 
SCCF RECON,ioos:station:SCCF:11:1,2019-08-13T10:00:00Z,26.4679,-82.0631,1.76,25.88,11111222 
SCCF RECON,ioos:station:SCCF:11:1,2019-08-13T11:00:00Z,26.4679,-82.0631,1.79,25.64,11111222 
SCCF RECON,ioos:station:SCCF:11:1,2019-08-13T12:00:00Z,26.4679,-82.0631,1.87,25.61,11111222 
SCCF RECON,ioos:station:SCCF:11:1,2019-08-13T13:00:00Z,26.4679,-82.0631,1.99,25.54,11111222 
SCCF RECON,ioos:station:SCCF:11:1,2019-08-13T14:00:00Z,26.4679,-82.0631,2.108,28.35,11111222 
SCCF RECON,ioos:station:SCCF:11:1,2019-08-13T15:00:00Z,26.4679,-82.0631,2.164,26.98,11111222 
SCCF RECON,ioos:station:SCCF:11:1,2019-08-13T16:00:00Z,26.4679,-82.0631,2.21,26.14,11111222 
SCCF RECON,ioos:station:SCCF:11:1,2019-08-13T17:00:00Z,26.4679,-82.0631,2.18,28.36,11111222 
SCCF RECON,ioos:station:SCCF:11:1,2019-08-13T18:00:00Z,26.4679,-82.0631,2.064,27.6,11111222 
SCCF RECON,ioos:station:SCCF:11:1,2019-08-13T19:00:00Z,26.4679,-82.0631,1.94,26.18,11111222 
SCCF RECON,ioos:station:SCCF:11:1,2019-08-13T20:00:00Z,26.4679,-82.0631,1.801,26.17,11111222 